Niagara Falls, NY

12:29 PM EDT on October 20, 2017 (GMT -0400)
Niagara Falls International

Weather History for KIAG - April, 2013

Change the Weather History Date:

Saturday, April 6, 2013

  Actual Average Record
Temperature  
Mean Temperature 34 °F -  
Max Temperature 46 °F 48 °F 73 °F (1997)
Min Temperature 21 °F 31 °F 19 °F (2003)
Degree Days  
Heating Degree Days 32    
Moisture  
Dew Point 19 °F    
Average Humidity 54    
Maximum Humidity 80    
Minimum Humidity 26    
Precipitation  
Precipitation 0.00 in - - ()
Sea Level Pressure  
Sea Level Pressure 30.23 in    
Wind  
Wind Speed 4 mph (NE)    
Max Wind Speed 10 mph    
Max Gust Speed -    
Visibility 10 miles    
Events Rain    
Averages and records for this station are not official NWS values.
T = Trace of Precipitation, MM = Missing Value Source: NWS Daily Summary

Daily Weather History Graph

Daily Weather History Graph

Search for Another Location

Airport or City:

Trip Planner

Search our weather history database for the weather conditions in past years. The results will help you decide how hot, cold, wet, or windy it might be!

Date:

Astronomy

Apr. 06, 2013 Rise Set
Actual Time 6:48 AM EDT 7:48 PM EDT
Civil Twilight 6:19 AM EDT 8:17 PM EDT
Nautical Twilight 5:45 AM EDT 8:52 PM EDT
Astronomical Twilight 5:09 AM EDT 9:28 PM EDT
Moon 4:37 AM EDT (4/6) 4:09 PM EDT (4/6)
Length of Visible Light 13h 57m
Length of Day
12h 59m
Waning Crescent, 15% of the Moon is Illuminated
Apr 6
Waning Crescent
Apr 10
New
Apr 18
First Quarter
Apr 25
Full
May 2
Last Quarter

Hourly Weather History & Observations

Time (EDT) Temp. Windchill Dew Point Humidity Pressure Visibility Wind Dir Wind Speed Gust Speed Precip Events Conditions
12:53 AM 28.0 °F 22.8 °F 15.1 °F 58% 30.23 in 10.0 mi North 4.6 mph - N/A   Clear
1:53 AM 27.0 °F 21.6 °F 14.0 °F 58% 30.25 in 10.0 mi NNW 4.6 mph - N/A   Clear
2:53 AM 21.9 °F 17.2 °F 12.9 °F 68% 30.27 in 10.0 mi West 3.5 mph - N/A   Clear
3:53 AM 24.1 °F - 15.1 °F 69% 30.27 in 10.0 mi Calm Calm - N/A   Clear
4:53 AM 23.0 °F - 15.1 °F 72% 30.29 in 10.0 mi Calm Calm - N/A   Clear
5:53 AM 21.9 °F - 15.1 °F 75% 30.30 in 10.0 mi Calm Calm - N/A   Clear
6:53 AM 21.0 °F - 15.1 °F 78% 30.33 in 10.0 mi Calm Calm - N/A   Clear
7:05 AM 21.2 °F - 15.8 °F 80% 30.28 in 10.0 mi Calm Calm - N/A   Partly Cloudy
7:53 AM 26.1 °F - 19.9 °F 78% 30.35 in 10.0 mi Calm Calm - N/A   Scattered Clouds
8:53 AM 32.0 °F 27.5 °F 21.0 °F 64% 30.34 in 10.0 mi SSE 4.6 mph - N/A   Partly Cloudy
9:53 AM 34.0 °F 31.0 °F 16.0 °F 48% 30.34 in 10.0 mi Variable 3.5 mph - N/A   Scattered Clouds
10:53 AM 36.0 °F - 15.1 °F 43% 30.34 in 10.0 mi Calm Calm - N/A   Scattered Clouds
11:53 AM 39.0 °F 36.8 °F 16.0 °F 39% 30.33 in 10.0 mi Variable 3.5 mph - N/A   Scattered Clouds
12:53 PM 39.9 °F 35.1 °F 15.1 °F 36% 30.32 in 10.0 mi Variable 6.9 mph - N/A   Scattered Clouds
1:53 PM 44.1 °F 40.8 °F 16.0 °F 32% 30.28 in 10.0 mi Variable 5.8 mph - N/A   Mostly Cloudy
2:53 PM 45.0 °F 43.5 °F 14.0 °F 29% 30.26 in 10.0 mi Variable 3.5 mph - N/A   Mostly Cloudy
3:53 PM 46.0 °F 43.9 °F 12.9 °F 26% 30.22 in 10.0 mi South 4.6 mph - N/A   Mostly Cloudy
4:53 PM 44.1 °F 40.1 °F 24.1 °F 45% 30.18 in 10.0 mi North 6.9 mph - N/A   Overcast
5:53 PM 45.0 °F 41.8 °F 23.0 °F 42% 30.17 in 10.0 mi North 5.8 mph - N/A   Mostly Cloudy
6:53 PM 43.0 °F 37.7 °F 24.1 °F 47% 30.16 in 10.0 mi NNE 9.2 mph - N/A   Overcast
7:53 PM 42.1 °F 37.7 °F 25.0 °F 51% 30.13 in 10.0 mi NE 6.9 mph - N/A   Overcast
8:53 PM 39.9 °F 33.9 °F 25.0 °F 55% 30.12 in 10.0 mi ENE 9.2 mph - 0.00 in Rain Light Rain
9:20 PM 39.2 °F 33.0 °F 24.8 °F 56% 30.05 in 10.0 mi East 9.2 mph - 0.00 in   Overcast
9:53 PM 39.9 °F 34.5 °F 23.0 °F 51% 30.08 in 10.0 mi East 8.1 mph - 0.00 in   Overcast
10:53 PM 39.2 °F 35.9 °F 24.8 °F 56% 30.06 in 10.0 mi East 4.6 mph - N/A   Overcast
11:53 PM 39.9 °F 33.4 °F 24.1 °F 53% 30.00 in 10.0 mi East 10.4 mph - N/A   Overcast